WA7ZVY-4 Weather Reports


Display with metric or nautical units.
time (UTC)temp
F
wind
direction
speed
MPH
gust
MPH
rain 1hr
in
rain 24hr
in
rain mn
in
humidity
%
barometer
mb
20260901150047 57 197 5.0 11.0 0.00 0.00 0.00 100 1010.8
20260901145826 57 236 5.0 11.0 0.00 0.00 0.00 100 1010.8
20260901145310 57 0 0.0 11.0 0.00 0.00 0.00 100 1010.7
20260901145033 57 246 3.0 11.0 0.00 0.00 0.00 100 1010.7
20260901144752 57 208 8.0 11.0 0.00 0.00 0.00 100 1010.7
20260901144526 57 208 6.0 9.0 0.00 0.00 0.00 100 1010.6
20260901144235 57 208 4.0 9.0 0.00 0.00 0.00 100 1010.7
20260901144019 57 208 5.0 9.0 0.00 0.00 0.00 100 1010.7
20260901143718 57 180 7.0 9.0 0.00 0.00 0.00 100 1010.6
20260901143512 57 180 4.0 9.0 0.00 0.00 0.00 100 1010.6
20260901143201 57 201 2.0 8.0 0.00 0.00 0.00 100 1010.6
20260901143005 57 201 2.0 8.0 0.00 0.00 0.00 100 1010.6
20260901142644 57 215 7.0 8.0 0.00 0.00 0.00 100 1010.6
20260901142458 57 215 4.0 10.0 0.00 0.00 0.00 100 1010.5
20260901142127 57 186 6.0 10.0 0.00 0.00 0.00 100 1010.5
20260901141951 57 186 4.0 10.0 0.00 0.00 0.00 100 1010.5
20260901141610 57 225 3.0 10.0 0.00 0.00 0.00 100 1010.4
20260901141444 57 225 3.0 10.0 0.00 0.00 0.00 100 1010.4
20260901141053 57 196 6.0 10.0 0.00 0.00 0.00 100 1010.5
20260901140937 57 173 6.0 10.0 0.00 0.00 0.00 100 1010.4
20260901140536 57 182 6.0 8.0 0.00 0.00 0.00 100 1010.4
20260901140430 57 182 7.0 9.0 0.00 0.00 0.00 100 1010.4
20260901140019 57 205 6.0 9.0 0.00 0.00 0.00 100 1010.5
20260901135923 57 214 7.0 9.0 0.00 0.00 0.00 100 1010.5
20260901135502 57 238 3.0 9.0 0.00 0.00 0.00 100 1010.4
20260901135416 57 238 4.0 9.0 0.00 0.00 0.00 100 1010.4
20260901134945 57 208 2.0 9.0 0.00 0.00 0.00 100 1010.4
20260901134909 57 208 2.0 9.0 0.00 0.00 0.00 100 1010.4
20260901134428 57 186 3.0 8.0 0.00 0.00 0.00 100 1010.3
20260901134402 57 186 6.0 8.0 0.00 0.00 0.00 100 1010.3
20260901133911 57 197 4.0 11.0 0.00 0.00 0.00 100 1010.4
20260901133855 57 197 2.0 11.0 0.00 0.00 0.00 100 1010.4
20260901133354 57 197 5.0 11.0 0.00 0.00 0.00 100 1010.2
20260901133348 57 197 3.0 11.0 0.00 0.00 0.00 100 1010.2
20260901132842 57 162 2.0 11.0 0.00 0.00 0.00 100 1010.2
20260901132837 57 162 4.0 11.0 0.00 0.00 0.00 100 1010.2
20260901132336 57 182 4.0 11.0 0.00 0.00 0.00 100 1010.2
20260901132320 57 182 4.0 11.0 0.00 0.00 0.00 100 1010.2
20260901131803 57 184 6.0 8.0 0.00 0.00 0.00 100 1010.2
20260901131320 57 196 5.0 11.0 0.00 0.00 0.00 100 1010.2
20260901131246 57 166 6.0 11.0 0.00 0.00 0.00 100 1010.2
20260901130813 57 0 0.0 11.0 0.00 0.00 0.00 100 1010.1
20260901130730 57 228 4.0 11.0 0.00 0.00 0.00 100 1010.1
20260901130306 57 225 8.0 11.0 0.00 0.00 0.00 100 1010.1
20260901130212 57 197 4.0 11.0 0.00 0.00 0.00 100 1010.1
20260901125759 57 196 5.0 11.0 0.00 0.00 0.00 100 1010.1
20260901125655 57 196 7.0 11.0 0.00 0.00 0.00 100 1010.1
20260901125252 57 0 0.0 8.0 0.00 0.00 0.00 100 1010.1
20260901125138 57 0 0.0 8.0 0.00 0.00 0.00 100 1010.1
20260901124745 57 208 4.0 8.0 0.00 0.00 0.00 100 1010.1
20260901124621 57 208 3.0 8.0 0.00 0.00 0.00 100 1010.1
20260901124238 57 196 3.0 8.0 0.00 0.00 0.00 100 1010.0
20260901124104 57 196 5.0 8.0 0.00 0.00 0.00 100 1010.1
20260901123731 57 196 6.0 8.0 0.00 0.00 0.00 100 1010.1
20260901123547 57 196 4.0 8.0 0.00 0.00 0.00 100 1010.1
20260901123224 57 204 3.0 6.0 0.00 0.00 0.00 100 1010.1
20260901123030 57 204 5.0 9.0 0.00 0.00 0.00 100 1010.1
20260901122717 57 186 6.0 9.0 0.00 0.00 0.00 100 1010.1
20260901122513 57 204 5.0 9.0 0.00 0.00 0.00 100 1010.0
20260901122210 57 203 6.0 9.0 0.00 0.00 0.00 100 1010.0
20260901121956 57 203 3.0 9.0 0.00 0.00 0.00 100 1010.1
20260901121703 57 201 7.0 9.0 0.00 0.00 0.00 100 1010.2
20260901121439 57 201 4.0 9.0 0.00 0.00 0.00 100 1010.2
20260901121156 57 201 5.0 8.0 0.00 0.00 0.00 100 1010.2
20260901120922 57 201 2.0 8.0 0.00 0.00 0.00 100 1010.2
20260901120649 57 182 6.0 8.0 0.00 0.00 0.00 100 1010.2
20260901120405 57 203 5.0 8.0 0.00 0.00 0.00 100 1010.2
20260901120142 57 245 4.0 8.0 0.00 0.00 0.00 100 1010.3
20260901115848 57 168 2.0 7.0 0.00 0.00 0.00 100 1010.2
20260901115635 57 204 7.0 7.0 0.00 0.00 0.00 100 1010.2
20260901115128 57 221 5.0 10.0 0.00 0.00 0.00 100 1010.2
20260901114814 57 0 0.0 10.0 0.00 0.00 0.00 100 1010.2
20260901114621 57 201 3.0 10.0 0.00 0.00 0.00 100 1010.2
20260901114257 57 201 6.0 10.0 0.00 0.00 0.00 100 1010.2
20260901114114 57 201 7.0 10.0 0.00 0.00 0.00 100 1010.2
20260901113607 57 193 5.0 10.0 0.00 0.00 0.00 100 1010.2
20260901113223 57 226 4.0 8.0 0.00 0.00 0.00 100 1010.1
20260901112706 57 191 5.0 5.0 0.00 0.00 0.00 100 1010.2
20260901112046 57 254 2.0 10.0 0.00 0.00 0.00 100 1010.2
20260901111632 57 225 4.0 10.0 0.00 0.00 0.00 100 1010.2
20260901111539 57 225 4.0 10.0 0.00 0.00 0.00 100 1010.2
20260901111117 57 179 7.0 10.0 0.00 0.00 0.00 100 1010.2
20260901111032 57 179 5.0 10.0 0.00 0.00 0.00 100 1010.2
20260901110526 57 205 6.0 8.0 0.00 0.00 0.00 100 1010.2
20260901110041 57 201 5.0 8.0 0.00 0.00 0.00 100 1010.2
20260901110018 57 201 6.0 8.0 0.00 0.00 0.00 100 1010.2
20260901105524 57 173 4.0 10.0 0.00 0.00 0.00 99 1010.2
20260901105511 57 173 5.0 10.0 0.00 0.00 0.00 99 1010.2
20260901105004 57 194 6.0 10.0 0.00 0.00 0.00 99 1010.1
20260901104450 57 225 4.0 10.0 0.00 0.00 0.00 99 1010.1
20260901103951 57 193 7.0 10.0 0.00 0.00 0.00 99 1010.2
20260901103933 57 193 6.0 10.0 0.00 0.00 0.00 99 1010.2
20260901103443 57 0 0.0 9.0 0.00 0.00 0.00 99 1010.0
20260901103415 57 0 0.0 9.0 0.00 0.00 0.00 99 1010.2
20260901102936 57 226 5.0 12.0 0.00 0.00 0.00 99 1010.2
20260901102859 57 226 5.0 12.0 0.00 0.00 0.00 99 1010.2
20260901102429 57 233 7.0 12.0 0.00 0.00 0.00 99 1010.2
20260901102341 57 235 3.0 12.0 0.00 0.00 0.00 99 1010.0
20260901101922 57 175 8.0 12.0 0.00 0.00 0.00 99 1010.2
20260901101825 57 0 0.0 12.0 0.00 0.00 0.00 99 1010.0
20260901101415 57 176 10.0 12.0 0.00 0.00 0.00 99 1010.0
20260901101307 57 0 0.0 10.0 0.00 0.00 0.00 99 1010.0
20260901100908 57 201 3.0 9.0 0.00 0.00 0.00 99 1010.0
20260901100750 57 200 5.0 9.0 0.00 0.00 0.00 99 1010.0
20260901100401 57 0 0.0 9.0 0.00 0.00 0.00 98 1009.9
20260901100233 57 284 4.0 9.0 0.00 0.00 0.00 98 1010.0
20260901095854 57 284 4.0 9.0 0.00 0.00 0.00 98 1010.0
20260901095716 57 203 4.0 9.0 0.00 0.00 0.00 98 1010.0
20260901095347 57 0 0.0 9.0 0.00 0.00 0.00 98 1009.9
20260901095159 57 218 4.0 9.0 0.00 0.00 0.00 98 1009.9
20260901094840 57 263 2.0 9.0 0.00 0.00 0.00 98 1009.9
20260901094642 57 193 9.0 9.0 0.00 0.00 0.00 98 1009.9
20260901094125 57 200 7.0 14.0 0.00 0.00 0.00 98 1009.9
20260901093608 57 240 5.0 14.0 0.00 0.00 0.00 98 1009.9
20260901093319 57 0 0.0 14.0 0.00 0.00 0.00 98 1009.9
20260901093051 57 232 6.0 14.0 0.00 0.00 0.00 98 1009.9
20260901092811 57 0 0.0 14.0 0.00 0.00 0.00 98 1010.0
20260901092534 57 232 6.0 10.0 0.00 0.00 0.00 98 1010.0
20260901092305 57 200 7.0 10.0 0.00 0.00 0.00 98 1010.0
20260901092017 57 207 4.0 10.0 0.00 0.00 0.00 98 1010.2
20260901091757 57 215 8.0 10.0 0.00 0.00 0.00 98 1010.1
20260901091500 57 215 4.0 10.0 0.00 0.00 0.00 98 1010.1
20260901091250 57 177 5.0 10.0 0.00 0.00 0.00 98 1010.1
20260901090943 57 177 5.0 10.0 0.00 0.00 0.00 97 1010.0
20260901090743 57 196 6.0 9.0 0.00 0.00 0.00 97 1010.0
20260901090426 57 197 3.0 9.0 0.00 0.00 0.00 97 1010.0
20260901090237 57 236 4.0 9.0 0.00 0.00 0.00 97 1010.1
20260901085730 57 226 5.0 6.0 0.00 0.00 0.00 97 1010.1
20260901085352 58 0 0.0 10.0 0.00 0.00 0.00 97 1010.1
20260901085222 58 211 3.0 10.0 0.00 0.00 0.00 97 1010.0
20260901084835 58 0 0.0 10.0 0.00 0.00 0.00 97 1010.1
20260901084715 58 162 5.0 10.0 0.00 0.00 0.00 97 1010.1
20260901084320 58 0 0.0 10.0 0.00 0.00 0.00 97 1010.0
20260901084209 58 243 3.0 10.0 0.00 0.00 0.00 97 1010.0
20260901083801 58 0 0.0 10.0 0.00 0.00 0.00 97 1010.0
20260901083701 58 204 5.0 10.0 0.00 0.00 0.00 97 1010.0
20260901083244 58 219 2.0 4.0 0.00 0.00 0.00 97 1010.0
20260901083154 58 219 2.0 4.0 0.00 0.00 0.00 97 1010.0
20260901082647 58 222 4.0 9.0 0.00 0.00 0.00 97 1010.0
20260901082210 58 247 3.0 9.0 0.00 0.00 0.00 97 1010.0
20260901082140 58 247 5.0 9.0 0.00 0.00 0.00 97 1010.0
20260901081653 58 217 2.0 9.0 0.00 0.00 0.00 97 1010.0
20260901081633 58 217 2.0 9.0 0.00 0.00 0.00 97 1010.0
20260901081138 58 201 4.0 9.0 0.00 0.00 0.00 97 1010.1
20260901081127 58 201 6.0 9.0 0.00 0.00 0.00 97 1010.0
20260901080619 58 201 4.0 9.0 0.00 0.00 0.00 97 1010.1
20260901080228 58 219 4.0 9.0 0.00 0.00 0.00 97 1010.0
20260901080112 58 219 4.0 9.0 0.00 0.00 0.00 97 1010.0
20260901075605 58 187 3.0 9.0 0.00 0.00 0.00 97 1010.0
20260901075545 58 187 3.0 9.0 0.00 0.00 0.00 97 1010.0
20260901075029 58 210 6.0 9.0 0.00 0.00 0.00 97 1009.9
20260901074551 58 191 3.0 11.0 0.00 0.00 0.00 97 1009.9
20260901074511 58 191 5.0 11.0 0.00 0.00 0.00 97 1009.9
20260901074044 58 194 3.0 11.0 0.00 0.00 0.00 97 1009.9
20260901073537 58 186 5.0 11.0 0.00 0.00 0.00 96 1010.0
20260901073437 58 225 4.0 11.0 0.00 0.00 0.00 96 1010.0
20260901073030 58 201 5.0 11.0 0.00 0.00 0.00 96 1009.8
20260901072920 58 207 6.0 10.0 0.00 0.00 0.00 96 1009.9
20260901072523 58 179 5.0 8.0 0.00 0.00 0.00 96 1009.9
20260901072404 58 179 5.0 8.0 0.00 0.00 0.00 96 1009.8
20260901072017 58 191 3.0 8.0 0.00 0.00 0.00 96 1009.9
20260901071846 58 191 5.0 8.0 0.00 0.00 0.00 96 1009.9
20260901071509 58 208 6.0 11.0 0.00 0.00 0.00 96 1009.9
20260901071002 58 218 2.0 11.0 0.00 0.00 0.00 96 1009.9
20260901070812 58 218 4.0 11.0 0.00 0.00 0.00 96 1010.0
20260901070455 58 226 5.0 11.0 0.00 0.00 0.00 96 1009.9
20260901070256 58 239 5.0 11.0 0.00 0.00 0.00 96 1009.9
20260901065948 58 239 5.0 11.0 0.00 0.00 0.00 96 1010.1
20260901065739 58 197 4.0 10.0 0.00 0.00 0.00 96 1010.1
20260901065441 58 222 6.0 10.0 0.00 0.00 0.00 95 1010.0
20260901065221 58 196 7.0 10.0 0.00 0.00 0.00 95 1009.9
20260901064934 58 196 5.0 10.0 0.00 0.00 0.00 95 1010.0
20260901064704 58 175 8.0 10.0 0.00 0.00 0.00 95 1010.0
20260901064427 58 215 5.0 6.0 0.00 0.00 0.00 95 1010.0
20260901064147 58 208 6.0 14.0 0.00 0.00 0.00 95 1010.0
20260901063920 58 175 6.0 14.0 0.00 0.00 0.00 95 1010.0
20260901063630 58 217 7.0 14.0 0.00 0.00 0.00 95 1010.0
20260901063413 58 217 6.0 14.0 0.00 0.00 0.00 95 1010.0
20260901063113 58 184 4.0 14.0 0.00 0.00 0.00 95 1010.0
20260901062907 58 226 1.0 14.0 0.00 0.00 0.00 95 1009.9
20260901062558 58 187 3.0 10.0 0.00 0.00 0.00 95 1009.9
20260901062359 58 208 6.0 10.0 0.00 0.00 0.00 95 1009.9
20260901062039 58 190 6.0 10.0 0.00 0.00 0.00 94 1009.9
20260901061852 58 175 2.0 10.0 0.00 0.00 0.00 94 1009.9
20260901061522 58 156 6.0 10.0 0.00 0.00 0.00 94 1009.8
20260901061345 58 156 7.0 10.0 0.00 0.00 0.00 94 1009.9
20260901061005 58 177 8.0 9.0 0.00 0.00 0.00 94 1010.0
20260901060838 58 232 2.0 9.0 0.00 0.00 0.00 94 1010.0
20260901060448 59 232 5.0 8.0 0.00 0.00 0.00 94 1010.0
20260901055931 59 0 0.0 3.0 0.00 0.00 0.00 94 1010.0
20260901055824 59 0 0.0 3.0 0.00 0.00 0.00 94 1010.0
20260901055414 59 0 0.0 5.0 0.00 0.00 0.00 94 1010.2
20260901055317 59 0 0.0 5.0 0.00 0.00 0.00 94 1010.1
20260901054857 59 0 0.0 5.0 0.00 0.00 0.00 94 1010.1
20260901054812 59 0 0.0 5.0 0.00 0.00 0.00 94 1010.1
20260901054340 59 0 0.0 5.0 0.00 0.00 0.00 94 1010.1
20260901054303 59 0 0.0 5.0 0.00 0.00 0.00 94 1010.0
20260901053823 59 0 0.0 5.0 0.00 0.00 0.00 94 1010.0
20260901053757 59 200 2.0 5.0 0.00 0.00 0.00 94 1010.0
20260901053306 59 0 0.0 7.0 0.00 0.00 0.00 94 1010.1
20260901052742 59 232 2.0 7.0 0.00 0.00 0.00 94 1010.0
20260901052232 59 183 3.0 7.0 0.00 0.00 0.00 94 1010.0
20260901051730 59 186 2.0 4.0 0.00 0.00 0.00 94 1010.0
20260901051715 59 186 2.0 4.0 0.00 0.00 0.00 94 1010.0
20260901051221 59 148 2.0 4.0 0.00 0.00 0.00 94 1010.0
20260901051158 59 148 3.0 4.0 0.00 0.00 0.00 94 1010.0
20260901050714 59 201 5.0 8.0 0.00 0.00 0.00 94 1010.0
20260901050642 59 201 3.0 8.0 0.00 0.00 0.00 94 1010.0
20260901050207 59 138 2.0 8.0 0.00 0.00 0.00 94 1010.0
20260901050124 59 138 2.0 8.0 0.00 0.00 0.00 94 1009.9
20260901045701 59 200 4.0 8.0 0.00 0.00 0.00 94 1010.1
20260901045607 59 203 1.0 8.0 0.00 0.00 0.00 94 1010.0
20260901045153 59 163 4.0 8.0 0.00 0.00 0.00 94 1010.0
20260901045050 59 163 7.0 8.0 0.00 0.00 0.00 94 1010.1
20260901044646 59 208 5.0 8.0 0.00 0.00 0.00 94 1010.0
20260901044536 59 208 4.0 8.0 0.00 0.00 0.00 94 1010.1
20260901044139 59 203 7.0 8.0 0.00 0.00 0.00 94 1010.1
20260901044016 59 173 4.0 8.0 0.00 0.00 0.00 94 1010.0
20260901043632 59 177 3.0 7.0 0.00 0.00 0.00 94 1010.0
20260901043459 59 177 5.0 7.0 0.00 0.00 0.00 93 1009.9
20260901043125 59 194 5.0 6.0 0.00 0.00 0.00 93 1009.9
20260901042942 59 190 2.0 6.0 0.00 0.00 0.00 93 1009.8
20260901042618 59 0 0.0 6.0 0.00 0.00 0.00 93 1009.8
20260901042425 59 0 0.0 6.0 0.00 0.00 0.00 93 1009.8
20260901042111 59 201 2.0 6.0 0.00 0.00 0.00 93 1009.8
20260901041908 59 201 2.0 6.0 0.00 0.00 0.00 93 1009.8
20260901041604 59 0 0.0 6.0 0.00 0.00 0.00 93 1009.8
20260901041351 59 0 0.0 6.0 0.00 0.00 0.00 93 1009.8
20260901040834 59 0 0.0 6.0 0.00 0.00 0.00 93 1009.8
20260901040550 59 183 3.0 8.0 0.00 0.00 0.00 93 1009.8
20260901040317 59 0 0.0 8.0 0.00 0.00 0.00 92 1010.0
20260901040043 59 217 1.0 8.0 0.00 0.00 0.00 92 1010.0
20260901035800 59 214 3.0 8.0 0.00 0.00 0.00 92 1009.9
20260901035536 59 214 5.0 8.0 0.00 0.00 0.00 92 1009.8
20260901035243 59 176 3.0 8.0 0.00 0.00 0.00 92 1009.8
20260901035029 59 176 3.0 8.0 0.00 0.00 0.00 92 1009.8
20260901034522 59 191 5.0 9.0 0.00 0.00 0.00 92 1009.7
20260901034209 59 219 2.0 9.0 0.00 0.00 0.00 92 1009.7
20260901034015 59 219 4.0 9.0 0.00 0.00 0.00 92 1009.6
20260901033652 59 221 2.0 9.0 0.00 0.00 0.00 92 1009.6
20260901033508 59 190 1.0 9.0 0.00 0.00 0.00 92 1009.6
20260901033135 59 197 4.0 9.0 0.00 0.00 0.00 91 1009.5
20260901033001 59 197 4.0 9.0 0.00 0.00 0.00 91 1009.5
20260901032618 59 231 1.0 3.0 0.00 0.00 0.00 91 1009.4
20260901032454 59 231 1.0 10.0 0.00 0.00 0.00 91 1009.5
20260901032101 59 169 2.0 10.0 0.00 0.00 0.00 91 1009.3
20260901031947 59 169 3.0 10.0 0.00 0.00 0.00 91 1009.3
20260901031544 59 267 3.0 10.0 0.00 0.00 0.00 91 1009.4
20260901031440 59 267 5.0 10.0 0.00 0.00 0.00 90 1009.3
20260901031027 59 208 4.0 10.0 0.00 0.00 0.00 90 1009.4
20260901030933 59 0 0.0 10.0 0.00 0.00 0.00 90 1009.4
20260901030510 59 197 3.0 8.0 0.00 0.00 0.00 90 1009.4
20260901030426 59 197 3.0 8.0 0.00 0.00 0.00 90 1009.4
20260901025953 59 0 0.0 9.0 0.00 0.00 0.00 90 1009.4
20260901025919 59 0 0.0 9.0 0.00 0.00 0.00 89 1009.4
20260901025436 59 0 0.0 9.0 0.00 0.00 0.00 89 1009.3
20260901025412 59 0 0.0 9.0 0.00 0.00 0.00 89 1009.3
20260901024919 59 193 3.0 9.0 0.00 0.00 0.00 89 1009.3
20260901024905 59 193 3.0 9.0 0.00 0.00 0.00 89 1009.3
20260901024403 59 0 0.0 9.0 0.00 0.00 0.00 89 1009.3
20260901024358 59 0 0.0 9.0 0.00 0.00 0.00 89 1009.3
20260901023851 60 0 0.0 7.0 0.00 0.00 0.00 88 1009.3
20260901023845 60 0 0.0 7.0 0.00 0.00 0.00 88 1009.3
20260901023344 60 205 5.0 7.0 0.00 0.00 0.00 88 1009.3
20260901023328 60 205 2.0 7.0 0.00 0.00 0.00 88 1009.2
20260901022837 60 182 5.0 5.0 0.00 0.00 0.00 87 1009.2
20260901022811 60 182 2.0 4.0 0.00 0.00 0.00 87 1009.2
20260901022254 60 0 0.0 2.0 0.00 0.00 0.00 87 1009.3
20260901021823 60 0 0.0 2.0 0.00 0.00 0.00 87 1009.3
20260901021737 60 149 1.0 2.0 0.00 0.00 0.00 87 1009.3
20260901021220 60 200 1.0 6.0 0.00 0.00 0.00 87 1009.3
20260901020809 60 0 0.0 6.0 0.00 0.00 0.00 86 1009.3
20260901020703 60 217 1.0 6.0 0.00 0.00 0.00 86 1009.3
20260901020302 60 0 0.0 6.0 0.00 0.00 0.00 86 1009.3
20260901020146 60 0 0.0 6.0 0.00 0.00 0.00 86 1009.3
20260901015755 60 231 3.0 6.0 0.00 0.00 0.00 86 1009.2
20260901015629 60 295 2.0 4.0 0.00 0.00 0.00 86 1009.3
20260901015248 60 0 0.0 4.0 0.00 0.00 0.00 85 1009.3
20260901015112 60 0 0.0 4.0 0.00 0.00 0.00 85 1009.3
20260901014741 60 191 2.0 4.0 0.00 0.00 0.00 85 1009.2
20260901014555 61 191 1.0 8.0 0.00 0.00 0.00 85 1009.2
20260901014234 61 198 2.0 8.0 0.00 0.00 0.00 85 1009.2
20260901014038 61 201 2.0 8.0 0.00 0.00 0.00 84 1009.0
20260901013521 61 253 4.0 8.0 0.00 0.00 0.00 84 1009.0
20260901013220 61 221 5.0 8.0 0.00 0.00 0.00 84 1009.0
20260901013004 61 229 2.0 8.0 0.00 0.00 0.00 83 1009.0
20260901012713 61 186 4.0 8.0 0.00 0.00 0.00 83 1009.0
20260901011930 62 288 2.0 8.0 0.00 0.00 0.00 82 1009.0
20260901011659 62 285 3.0 8.0 0.00 0.00 0.00 82 1009.1
20260901011413 62 0 0.0 8.0 0.00 0.00 0.00 82 1009.1
20260901011152 62 277 2.0 8.0 0.00 0.00 0.00 82 1009.1
20260901010856 63 271 2.0 8.0 0.00 0.00 0.00 82 1009.1
20260901010645 63 210 4.0 8.0 0.00 0.00 0.00 81 1009.2
20260901010339 63 0 0.0 6.0 0.00 0.00 0.00 81 1009.1
20260901010138 63 218 2.0 4.0 0.00 0.00 0.00 81 1009.2
20260901005822 63 218 4.0 7.0 0.00 0.00 0.00 81 1009.2
20260901005307 63 228 2.0 7.0 0.00 0.00 0.00 81 1009.1
20260901005124 63 228 4.0 7.0 0.00 0.00 0.00 81 1009.1
20260901004748 63 201 2.0 7.0 0.00 0.00 0.00 81 1009.2
20260901004617 63 201 2.0 7.0 0.00 0.00 0.00 81 1009.2
20260901004231 63 189 5.0 7.0 0.00 0.00 0.00 80 1009.2
20260901004110 63 208 4.0 6.0 0.00 0.00 0.00 80 1009.2
20260901003714 63 194 4.0 7.0 0.00 0.00 0.00 80 1009.1
20260901003603 63 194 3.0 7.0 0.00 0.00 0.00 80 1009.2
20260901003157 64 229 3.0 7.0 0.00 0.00 0.00 80 1009.2
20260901003056 64 229 3.0 7.0 0.00 0.00 0.00 80 1009.3
20260901002640 64 243 2.0 7.0 0.00 0.00 0.00 79 1009.2
20260901002549 64 266 2.0 7.0 0.00 0.00 0.00 78 1009.3
20260901002123 64 275 5.0 7.0 0.00 0.00 0.00 78 1009.3
20260901002042 64 275 4.0 7.0 0.00 0.00 0.00 78 1009.3
20260901001606 65 296 4.0 5.0 0.00 0.00 0.00 77 1009.3
20260901001535 65 296 4.0 5.0 0.00 0.00 0.00 77 1009.3
20260901001049 65 309 2.0 7.0 0.00 0.00 0.00 77 1009.3
20260901001028 65 309 2.0 7.0 0.00 0.00 0.00 77 1009.4
20260901000532 65 235 2.0 7.0 0.00 0.00 0.00 77 1009.4
20260901000521 65 235 3.0 7.0 0.00 0.00 0.00 76 1009.4
20260901000014 65 278 3.0 7.0 0.00 0.00 0.00 76 1009.3
20260831235458 66 299 3.0 7.0 0.00 0.00 0.00 75 1009.3
20260831235000 66 226 3.0 7.0 0.00 0.00 0.00 75 1009.4
20260831234942 66 226 3.0 7.0 0.00 0.00 0.00 75 1009.4
20260831234453 66 287 3.0 10.0 0.00 0.00 0.00 75 1009.4
20260831234424 66 203 2.0 10.0 0.00 0.00 0.00 75 1009.4
20260831233946 66 254 3.0 10.0 0.00 0.00 0.00 75 1009.3
20260831233907 66 254 3.0 10.0 0.00 0.00 0.00 75 1009.4
20260831233439 66 268 4.0 10.0 0.00 0.00 0.00 76 1009.5
20260831233350 66 303 2.0 10.0 0.00 0.00 0.00 76 1009.4
20260831232932 66 233 6.0 8.0 0.00 0.00 0.00 75 1009.5
20260831232834 66 0 0.0 8.0 0.00 0.00 0.00 75 1009.5
20260831232425 66 327 8.0 8.0 0.00 0.00 0.00 75 1009.4
20260831232316 66 179 5.0 8.0 0.00 0.00 0.00 75 1009.5
20260831231918 66 211 4.0 5.0 0.00 0.00 0.00 76 1009.4
20260831231759 66 242 3.0 9.0 0.00 0.00 0.00 75 1009.5
20260831231411 66 242 6.0 9.0 0.00 0.00 0.00 76 1009.5
20260831231242 66 165 5.0 9.0 0.00 0.00 0.00 76 1009.6
20260831230904 66 0 0.0 9.0 0.00 0.00 0.00 75 1009.6
20260831230725 66 273 5.0 9.0 0.00 0.00 0.00 75 1009.6
20260831230357 66 0 0.0 9.0 0.00 0.00 0.00 74 1009.6
20260831230208 66 337 7.0 9.0 0.00 0.00 0.00 74 1009.6
20260831225850 66 225 1.0 7.0 0.00 0.00 0.00 74 1009.6
20260831225651 66 302 3.0 7.0 0.00 0.00 0.00 74 1009.6
20260831225343 67 302 5.0 7.0 0.00 0.00 0.00 73 1009.6
20260831225134 67 191 5.0 7.0 0.00 0.00 0.00 74 1009.4
20260831224836 67 240 1.0 7.0 0.00 0.00 0.00 73 1009.3
20260831224617 67 239 3.0 7.0 0.00 0.00 0.00 73 1009.4
20260831224059 67 263 3.0 7.0 0.00 0.00 0.00 73 1009.4
20260831223822 67 196 1.0 3.0 0.00 0.00 0.00 73 1009.5
20260831223543 67 201 4.0 10.0 0.00 0.00 0.00 73 1009.5
20260831223315 67 0 0.0 10.0 0.00 0.00 0.00 73 1009.5
20260831223025 67 215 5.0 10.0 0.00 0.00 0.00 73 1009.5
20260831222808 67 182 7.0 10.0 0.00 0.00 0.00 74 1009.4
20260831222509 67 288 3.0 10.0 0.00 0.00 0.00 73 1009.5
20260831222301 67 194 6.0 10.0 0.00 0.00 0.00 73 1009.5
20260831221952 68 294 7.0 10.0 0.00 0.00 0.00 72 1009.5
20260831221754 68 296 4.0 10.0 0.00 0.00 0.00 73 1009.5
20260831221435 68 296 4.0 10.0 0.00 0.00 0.00 73 1009.5
20260831221247 68 295 6.0 10.0 0.00 0.00 0.00 73 1009.5
20260831220918 68 217 4.0 10.0 0.00 0.00 0.00 73 1009.5
20260831220740 68 260 6.0 10.0 0.00 0.00 0.00 74 1009.5
20260831220400 69 299 6.0 10.0 0.00 0.00 0.00 74 1009.2
20260831220233 69 275 7.0 10.0 0.00 0.00 0.00 75 1009.3
20260831215844 68 245 3.0 8.0 0.00 0.00 0.00 75 1009.1
20260831215726 68 275 3.0 8.0 0.00 0.00 0.00 75 1009.3
20260831215328 68 238 3.0 8.0 0.00 0.00 0.00 75 1009.3
20260831215218 68 267 6.0 8.0 0.00 0.00 0.00 75 1009.3
20260831214809 68 274 5.0 8.0 0.00 0.00 0.00 75 1009.3
20260831214712 68 274 4.0 8.0 0.00 0.00 0.00 75 1009.2
20260831214252 68 291 5.0 8.0 0.00 0.00 0.00 74 1009.3
20260831214206 68 291 4.0 8.0 0.00 0.00 0.00 74 1009.3
20260831213735 68 204 5.0 6.0 0.00 0.00 0.00 74 1009.3
20260831213658 68 204 5.0 6.0 0.00 0.00 0.00 75 1009.2
20260831213218 68 215 3.0 4.0 0.00 0.00 0.00 75 1009.2
20260831213151 68 215 2.0 4.0 0.00 0.00 0.00 75 1009.2
20260831212701 68 281 2.0 3.0 0.00 0.00 0.00 77 1009.2
20260831212644 68 281 2.0 3.0 0.00 0.00 0.00 77 1009.2
20260831212144 67 327 5.0 8.0 0.00 0.00 0.00 75 1009.2
20260831212137 67 327 6.0 8.0 0.00 0.00 0.00 75 1009.2
20260831211627 68 303 6.0 8.0 0.00 0.00 0.00 75 1009.2
20260831211122 68 261 5.0 8.0 0.00 0.00 0.00 74 1009.3
20260831211110 68 261 6.0 8.0 0.00 0.00 0.00 74 1009.3
20260831210616 68 323 6.0 8.0 0.00 0.00 0.00 74 1009.1
20260831210553 68 323 6.0 8.0 0.00 0.00 0.00 74 1009.1
20260831210108 69 221 5.0 8.0 0.00 0.00 0.00 75 1009.1
20260831210036 69 282 5.0 8.0 0.00 0.00 0.00 74 1009.1
20260831205519 68 289 4.0 8.0 0.00 0.00 0.00 75 1009.1
20260831205055 68 273 3.0 8.0 0.00 0.00 0.00 76 1009.1
20260831205002 68 273 5.0 8.0 0.00 0.00 0.00 76 1009.1
20260831204547 68 294 2.0 6.0 0.00 0.00 0.00 76 1009.1
20260831204446 68 294 4.0 6.0 0.00 0.00 0.00 76 1009.1
20260831204040 67 254 4.0 6.0 0.00 0.00 0.00 76 1009.2
20260831203928 67 254 5.0 7.0 0.00 0.00 0.00 75 1009.2
20260831203533 67 327 1.0 7.0 0.00 0.00 0.00 76 1009.4
20260831203411 67 327 2.0 7.0 0.00 0.00 0.00 75 1009.4
20260831203026 67 301 5.0 7.0 0.00 0.00 0.00 75 1009.4
20260831202854 67 264 5.0 7.0 0.00 0.00 0.00 75 1009.5
20260831202519 67 306 4.0 7.0 0.00 0.00 0.00 75 1009.5
20260831202337 67 0 0.0 7.0 0.00 0.00 0.00 75 1009.5
20260831202012 68 338 5.0 6.0 0.00 0.00 0.00 74 1009.4
20260831201820 68 281 5.0 5.0 0.00 0.00 0.00 75 1009.4
20260831201506 67 308 4.0 7.0 0.00 0.00 0.00 76 1009.4
20260831201303 67 236 2.0 7.0 0.00 0.00 0.00 75 1009.4
20260831200958 67 236 4.0 7.0 0.00 0.00 0.00 75 1009.4
20260831200746 67 331 7.0 7.0 0.00 0.00 0.00 75 1009.4
20260831200451 67 331 5.0 7.0 0.00 0.00 0.00 75 1009.4
20260831200232 67 264 6.0 7.0 0.00 0.00 0.00 75 1009.4
20260831195944 67 264 6.0 7.0 0.00 0.00 0.00 76 1009.4
20260831195713 67 260 4.0 6.0 0.00 0.00 0.00 76 1009.4
20260831195437 66 260 4.0 6.0 0.00 0.00 0.00 76 1009.3
20260831195155 66 266 5.0 6.0 0.00 0.00 0.00 75 1009.3
20260831194931 66 322 6.0 10.0 0.00 0.00 0.00 75 1009.2
20260831194638 66 327 6.0 10.0 0.00 0.00 0.00 75 1009.2
20260831194423 66 263 5.0 10.0 0.00 0.00 0.00 75 1009.3
20260831194122 66 334 4.0 10.0 0.00 0.00 0.00 75 1009.3
20260831193917 66 334 5.0 10.0 0.00 0.00 0.00 74 1009.3
20260831193604 66 324 7.0 10.0 0.00 0.00 0.00 74 1009.4
20260831193409 66 1 5.0 10.0 0.00 0.00 0.00 73 1009.3
20260831193047 66 312 5.0 8.0 0.00 0.00 0.00 73 1009.3
20260831192902 67 273 5.0 8.0 0.00 0.00 0.00 73 1009.3
20260831192530 66 320 5.0 8.0 0.00 0.00 0.00 73 1009.3
20260831192355 66 320 5.0 8.0 0.00 0.00 0.00 73 1009.3
20260831192013 66 298 4.0 8.0 0.00 0.00 0.00 73 1009.3
20260831191848 66 12 3.0 8.0 0.00 0.00 0.00 73 1009.3
20260831191457 66 308 5.0 7.0 0.00 0.00 0.00 72 1009.2
20260831191341 66 315 4.0 7.0 0.00 0.00 0.00 72 1009.2
20260831190939 67 294 4.0 5.0 0.00 0.00 0.00 72 1009.3
20260831190835 67 319 4.0 4.0 0.00 0.00 0.00 72 1009.4
20260831190422 67 240 0.0 8.0 0.00 0.00 0.00 73 1009.4
20260831185905 66 0 0.0 8.0 0.00 0.00 0.00 73 1009.4
20260831185822 66 0 0.0 8.0 0.00 0.00 0.00 73 1009.4
20260831185348 66 15 2.0 8.0 0.00 0.00 0.00 72 1009.5
20260831185314 66 7 3.0 8.0 0.00 0.00 0.00 72 1009.6
20260831184833 66 322 5.0 8.0 0.00 0.00 0.00 71 1009.7
20260831184806 66 315 5.0 8.0 0.00 0.00 0.00 71 1009.7
20260831184314 66 280 3.0 6.0 0.00 0.00 0.00 72 1009.6
20260831184300 66 324 4.0 6.0 0.00 0.00 0.00 72 1009.6
20260831183752 66 334 3.0 6.0 0.00 0.00 0.00 72 1009.7
20260831183240 66 338 5.0 6.0 0.00 0.00 0.00 73 1009.7
20260831182723 66 355 3.0 6.0 0.00 0.00 0.00 73 1009.8
20260831182231 66 302 2.0 7.0 0.00 0.00 0.00 74 1009.8
20260831182206 66 302 4.0 7.0 0.00 0.00 0.00 74 1009.9
20260831180710 66 323 6.0 7.0 0.00 0.00 0.00 73 1010.0
20260831180615 66 326 4.0 6.0 0.00 0.00 0.00 73 1010.0
20260831180203 66 274 4.0 6.0 0.00 0.00 0.00 72 1010.0
20260831180059 66 274 3.0 6.0 0.00 0.00 0.00 72 1010.0
20260831175657 66 309 4.0 6.0 0.00 0.00 0.00 71 1010.0
20260831175541 66 299 3.0 6.0 0.00 0.00 0.00 71 1010.0
20260831175151 66 329 3.0 6.0 0.00 0.00 0.00 71 1009.8
20260831175024 66 329 4.0 6.0 0.00 0.00 0.00 71 1010.0
20260831174642 66 291 5.0 5.0 0.00 0.00 0.00 71 1010.0
20260831174507 66 291 5.0 5.0 0.00 0.00 0.00 71 1009.9
20260831174135 66 334 4.0 5.0 0.00 0.00 0.00 72 1009.9
20260831173950 66 0 0.0 4.0 0.00 0.00 0.00 73 1009.9
20260831173628 66 291 2.0 4.0 0.00 0.00 0.00 74 1010.0
20260831173433 66 291 2.0 4.0 0.00 0.00 0.00 74 1009.9
20260831173121 65 289 1.0 4.0 0.00 0.00 0.00 74 1010.0
20260831172917 65 289 1.0 4.0 0.00 0.00 0.00 74 1010.0
20260831172614 65 257 2.0 4.0 0.00 0.00 0.00 75 1009.9
20260831172359 65 0 0.0 4.0 0.00 0.00 0.00 75 1010.0
20260831172107 65 0 0.0 3.0 0.00 0.00 0.00 76 1009.8
20260831171842 65 0 0.0 3.0 0.00 0.00 0.00 76 1009.8
20260831171600 65 264 1.0 3.0 0.00 0.00 0.00 76 1009.8
20260831171325 65 313 1.0 3.0 0.00 0.00 0.00 76 1009.8
20260831171053 65 0 0.0 3.0 0.00 0.00 0.00 77 1009.8
20260831170808 65 0 0.0 3.0 0.00 0.00 0.00 77 1009.8
20260831170546 64 298 1.0 2.0 0.00 0.00 0.00 78 1009.8
20260831170251 64 0 0.0 4.0 0.00 0.00 0.00 78 1009.8
20260831170039 64 0 0.0 4.0 0.00 0.00 0.00 79 1009.8
20260831165734 64 0 0.0 4.0 0.00 0.00 0.00 80 1009.8
20260831165532 64 0 0.0 4.0 0.00 0.00 0.00 80 1009.8
20260831165217 64 308 2.0 4.0 0.00 0.00 0.00 81 1009.9
20260831165025 64 308 3.0 4.0 0.00 0.00 0.00 82 1009.9
20260831164700 63 306 2.0 4.0 0.00 0.00 0.00 83 1009.9
20260831164518 63 0 0.0 3.0 0.00 0.00 0.00 84 1009.9
20260831164143 63 25 1.0 2.0 0.00 0.00 0.00 84 1009.9
20260831164011 63 0 0.0 0.0 0.00 0.00 0.00 84 1009.9
20260831163626 62 0 0.0 0.0 0.00 0.00 0.00 85 1009.8
20260831163504 62 0 0.0 0.0 0.00 0.00 0.00 85 1009.8
20260831163109 62 0 0.0 0.0 0.00 0.00 0.00 86 1009.8
20260831162552 62 0 0.0 0.0 0.00 0.00 0.00 87 1009.9
20260831162450 62 0 0.0 0.0 0.00 0.00 0.00 87 1009.9
20260831162035 62 0 0.0 0.0 0.00 0.00 0.00 88 1010.0
20260831161943 62 0 0.0 0.0 0.00 0.00 0.00 88 1010.0
20260831161518 62 0 0.0 0.0 0.00 0.00 0.00 90 1010.1
20260831161436 62 0 0.0 0.0 0.00 0.00 0.00 90 1010.1
20260831161001 62 0 0.0 0.0 0.00 0.00 0.00 92 1010.1
20260831160929 62 0 0.0 0.0 0.00 0.00 0.00 92 1010.1
20260831160513 61 0 0.0 0.0 0.00 0.00 0.00 94 1010.2
20260831160444 62 0 0.0 0.0 0.00 0.00 0.00 94 1010.1
20260831160422 61 0 0.0 0.0 0.00 0.00 0.00 94 1010.2
20260831155927 61 0 0.0 0.0 0.00 0.00 0.00 95 1010.3
20260831155915 61 0 0.0 0.0 0.00 0.00 0.00 95 1010.3
20260831155408 60 0 0.0 0.0 0.00 0.00 0.00 96 1010.3
20260831154853 59 0 0.0 0.0 0.00 0.00 0.00 97 1010.2
20260831154354 58 0 0.0 0.0 0.00 0.00 0.00 98 1010.3
20260831154336 58 0 0.0 0.0 0.00 0.00 0.00 98 1010.3
20260831153847 58 0 0.0 0.0 0.00 0.00 0.00 98 1010.3
20260831153819 58 0 0.0 0.0 0.00 0.00 0.00 98 1010.4
20260831153340 57 0 0.0 0.0 0.00 0.00 0.00 99 1010.4
20260831153302 57 0 0.0 0.0 0.00 0.00 0.00 99 1010.4
20260831152833 56 0 0.0 0.0 0.00 0.00 0.00 99 1010.5
20260831152745 56 0 0.0 0.0 0.00 0.00 0.00 99 1010.5
20260831152329 56 0 0.0 0.0 0.00 0.00 0.00 100 1010.5
20260831152228 56 0 0.0 0.0 0.00 0.00 0.00 100 1010.5
20260831151819 55 0 0.0 0.0 0.00 0.00 0.00 100 1010.5
20260831151711 55 0 0.0 0.0 0.00 0.00 0.00 100 1010.5
20260831151312 55 0 0.0 0.0 0.00 0.00 0.00 100 1010.5
20260831151154 55 0 0.0 0.0 0.00 0.00 0.00 100 1010.4
20260831150805 54 0 0.0 0.0 0.00 0.00 0.00 100 1010.4
20260831150637 54 0 0.0 0.0 0.00 0.00 0.00 100 1010.4